owner,sensor,date,latitude,longitude,vertical_datum,wind_speed,wind_to_direction,wind_speed_of_gust,qcFlag 
TCOON,ioos:station:TCOON:003:1,2015-08-01T00:00:00Z,26.8015,-97.4706,0.0,5.2,163.0,5.9,'11111222,11111222,11111222' 
TCOON,ioos:station:TCOON:003:1,2015-08-01T00:06:00Z,26.8015,-97.4706,0.0,5.3,156.0,6.0,'11111222,11111222,11111222' 
TCOON,ioos:station:TCOON:003:1,2015-08-01T00:12:00Z,26.8015,-97.4706,0.0,5.4,160.0,5.9,'11111222,11111222,11111222' 
TCOON,ioos:station:TCOON:003:1,2015-08-01T00:18:00Z,26.8015,-97.4706,0.0,5.4,158.0,6.0,'11111222,11111222,11111222' 
TCOON,ioos:station:TCOON:003:1,2015-08-01T00:24:00Z,26.8015,-97.4706,0.0,4.2,170.0,4.9,'1111122,1111122,1111122' 
TCOON,ioos:station:TCOON:003:1,2015-08-01T00:30:00Z,26.8015,-97.4706,0.0,4.2,170.0,4.9,'11111222,11111222,11111222' 
TCOON,ioos:station:TCOON:003:1,2015-08-01T00:36:00Z,26.8015,-97.4706,0.0,3.7,161.0,4.8,'11111222,11111222,11111222' 
TCOON,ioos:station:TCOON:003:1,2015-08-01T00:42:00Z,26.8015,-97.4706,0.0,4.0,168.0,4.5,'11111222,11111222,11111222' 
TCOON,ioos:station:TCOON:003:1,2015-08-01T00:48:00Z,26.8015,-97.4706,0.0,4.2,158.0,5.1,'11111222,11111222,11111222' 
TCOON,ioos:station:TCOON:003:1,2015-08-01T00:54:00Z,26.8015,-97.4706,0.0,4.7,160.0,5.5,'11111222,11111222,11111222' 
TCOON,ioos:station:TCOON:003:1,2015-08-01T01:00:00Z,26.8015,-97.4706,0.0,4.2,162.0,5.1,'11111222,11111222,11111222' 
TCOON,ioos:station:TCOON:003:1,2015-08-01T01:06:00Z,26.8015,-97.4706,0.0,4.6,158.0,5.0,'11111222,11111222,11111222' 
TCOON,ioos:station:TCOON:003:1,2015-08-01T01:12:00Z,26.8015,-97.4706,0.0,4.1,158.0,5.2,'11111222,11111222,11111222' 
TCOON,ioos:station:TCOON:003:1,2015-08-01T01:18:00Z,26.8015,-97.4706,0.0,4.2,168.0,4.9,'1111122,1111122,1111122' 
TCOON,ioos:station:TCOON:003:1,2015-08-01T01:24:00Z,26.8015,-97.4706,0.0,4.2,168.0,4.9,'11111222,11111222,11111222' 
TCOON,ioos:station:TCOON:003:1,2015-08-01T01:30:00Z,26.8015,-97.4706,0.0,3.6,167.0,4.5,'11111222,11111222,11111222' 
TCOON,ioos:station:TCOON:003:1,2015-08-01T01:36:00Z,26.8015,-97.4706,0.0,3.7,164.0,4.2,'11111222,11111222,11111222' 
TCOON,ioos:station:TCOON:003:1,2015-08-01T01:42:00Z,26.8015,-97.4706,0.0,4.1,166.0,4.5,'11111222,11111222,11111222' 
TCOON,ioos:station:TCOON:003:1,2015-08-01T01:48:00Z,26.8015,-97.4706,0.0,3.5,169.0,4.5,'11111222,11111222,11111222' 
TCOON,ioos:station:TCOON:003:1,2015-08-01T01:54:00Z,26.8015,-97.4706,0.0,4.1,171.0,4.7,'11111222,11111222,11111222' 
TCOON,ioos:station:TCOON:003:1,2015-08-01T02:00:00Z,26.8015,-97.4706,0.0,4.0,165.0,4.7,'11111222,11111222,11111222' 
TCOON,ioos:station:TCOON:003:1,2015-08-01T02:06:00Z,26.8015,-97.4706,0.0,4.1,162.0,4.4,'11111222,11111222,11111222' 
TCOON,ioos:station:TCOON:003:1,2015-08-01T02:12:00Z,26.8015,-97.4706,0.0,4.0,170.0,4.9,'11111222,11111222,11111222' 
TCOON,ioos:station:TCOON:003:1,2015-08-01T02:18:00Z,26.8015,-97.4706,0.0,3.8,159.0,4.5,'11111222,11111222,11111222' 
TCOON,ioos:station:TCOON:003:1,2015-08-01T02:24:00Z,26.8015,-97.4706,0.0,3.4,159.0,4.4,'1111122,1111122,1111122' 
TCOON,ioos:station:TCOON:003:1,2015-08-01T02:30:00Z,26.8015,-97.4706,0.0,3.4,159.0,4.4,'11111222,11111222,11111222' 
TCOON,ioos:station:TCOON:003:1,2015-08-01T02:36:00Z,26.8015,-97.4706,0.0,3.1,164.0,3.6,'11111222,11111222,11111222' 
TCOON,ioos:station:TCOON:003:1,2015-08-01T02:42:00Z,26.8015,-97.4706,0.0,3.1,162.0,3.7,'11111222,11111222,11111222' 
TCOON,ioos:station:TCOON:003:1,2015-08-01T02:48:00Z,26.8015,-97.4706,0.0,2.1,172.0,3.0,'11111222,11111222,11111222' 
TCOON,ioos:station:TCOON:003:1,2015-08-01T02:54:00Z,26.8015,-97.4706,0.0,1.9,162.0,2.5,'11111222,11111222,11111222' 
TCOON,ioos:station:TCOON:003:1,2015-08-01T03:00:00Z,26.8015,-97.4706,0.0,2.7,162.0,3.1,'11111222,11111222,11111222' 
TCOON,ioos:station:TCOON:003:1,2015-08-01T03:06:00Z,26.8015,-97.4706,0.0,2.6,184.0,3.4,'11111222,11111222,11111222' 
TCOON,ioos:station:TCOON:003:1,2015-08-01T03:12:00Z,26.8015,-97.4706,0.0,2.8,173.0,3.7,'11111222,11111222,11111222' 
TCOON,ioos:station:TCOON:003:1,2015-08-01T03:18:00Z,26.8015,-97.4706,0.0,2.8,182.0,3.3,'1111122,1111122,1111122' 
TCOON,ioos:station:TCOON:003:1,2015-08-01T03:24:00Z,26.8015,-97.4706,0.0,2.8,182.0,3.3,'11111222,11111222,11111222' 
TCOON,ioos:station:TCOON:003:1,2015-08-01T03:30:00Z,26.8015,-97.4706,0.0,2.5,189.0,3.1,'11111222,11111222,11111222' 
TCOON,ioos:station:TCOON:003:1,2015-08-01T03:36:00Z,26.8015,-97.4706,0.0,2.4,193.0,3.0,'11111222,11111222,11111222' 
TCOON,ioos:station:TCOON:003:1,2015-08-01T03:42:00Z,26.8015,-97.4706,0.0,2.5,189.0,3.2,'11111222,11111222,11111222' 
TCOON,ioos:station:TCOON:003:1,2015-08-01T03:48:00Z,26.8015,-97.4706,0.0,2.8,187.0,3.2,'11111222,11111222,11111222' 
TCOON,ioos:station:TCOON:003:1,2015-08-01T03:54:00Z,26.8015,-97.4706,0.0,3.2,184.0,3.6,'11111222,11111222,11111222' 
TCOON,ioos:station:TCOON:003:1,2015-08-01T04:00:00Z,26.8015,-97.4706,0.0,2.7,194.0,3.4,'11111222,11111222,11111222' 
TCOON,ioos:station:TCOON:003:1,2015-08-01T04:06:00Z,26.8015,-97.4706,0.0,2.5,201.0,3.2,'11111222,11111222,11111222' 
TCOON,ioos:station:TCOON:003:1,2015-08-01T04:12:00Z,26.8015,-97.4706,0.0,2.2,214.0,2.8,'11111222,11111222,11111222' 
TCOON,ioos:station:TCOON:003:1,2015-08-01T04:18:00Z,26.8015,-97.4706,0.0,2.3,191.0,2.8,'1111122,1111122,1111122' 
TCOON,ioos:station:TCOON:003:1,2015-08-01T04:24:00Z,26.8015,-97.4706,0.0,2.3,191.0,2.8,'11111222,11111222,11111222' 
TCOON,ioos:station:TCOON:003:1,2015-08-01T04:30:00Z,26.8015,-97.4706,0.0,2.9,186.0,3.2,'11111222,11111222,11111222' 
TCOON,ioos:station:TCOON:003:1,2015-08-01T04:36:00Z,26.8015,-97.4706,0.0,2.5,200.0,3.1,'11111222,11111222,11111222' 
TCOON,ioos:station:TCOON:003:1,2015-08-01T04:42:00Z,26.8015,-97.4706,0.0,2.3,226.0,3.0,'11111222,11111222,11111222' 
TCOON,ioos:station:TCOON:003:1,2015-08-01T04:48:00Z,26.8015,-97.4706,0.0,2.0,238.0,2.5,'11111222,11111222,11111222' 
TCOON,ioos:station:TCOON:003:1,2015-08-01T04:54:00Z,26.8015,-97.4706,0.0,2.0,226.0,2.5,'11111222,11111222,11111222' 
TCOON,ioos:station:TCOON:003:1,2015-08-01T05:00:00Z,26.8015,-97.4706,0.0,1.7,225.0,2.5,'11111222,11111222,11111222' 
TCOON,ioos:station:TCOON:003:1,2015-08-01T05:06:00Z,26.8015,-97.4706,0.0,1.4,229.0,1.9,'11111222,11111222,11111222' 
TCOON,ioos:station:TCOON:003:1,2015-08-01T05:12:00Z,26.8015,-97.4706,0.0,1.5,251.0,1.8,'11111222,11111222,11111222' 
TCOON,ioos:station:TCOON:003:1,2015-08-01T05:18:00Z,26.8015,-97.4706,0.0,1.5,268.0,1.9,'11111222,11111222,11111222' 
TCOON,ioos:station:TCOON:003:1,2015-08-01T05:24:00Z,26.8015,-97.4706,0.0,1.5,270.0,1.9,'1111122,1111122,1111122' 
TCOON,ioos:station:TCOON:003:1,2015-08-01T05:30:00Z,26.8015,-97.4706,0.0,1.5,270.0,1.9,'11111222,11111222,11111222' 
TCOON,ioos:station:TCOON:003:1,2015-08-01T05:36:00Z,26.8015,-97.4706,0.0,1.6,229.0,1.9,'11111222,11111222,11111222' 
TCOON,ioos:station:TCOON:003:1,2015-08-01T05:42:00Z,26.8015,-97.4706,0.0,1.7,211.0,2.0,'11111222,11111222,11111222' 
TCOON,ioos:station:TCOON:003:1,2015-08-01T05:48:00Z,26.8015,-97.4706,0.0,1.8,201.0,2.2,'11111222,11111222,11111222' 
TCOON,ioos:station:TCOON:003:1,2015-08-01T05:54:00Z,26.8015,-97.4706,0.0,1.8,207.0,2.1,'11111222,11111222,11111222' 
TCOON,ioos:station:TCOON:003:1,2015-08-01T06:00:00Z,26.8015,-97.4706,0.0,1.6,210.0,2.2,'11111222,11111222,11111222' 
TCOON,ioos:station:TCOON:003:1,2015-08-01T06:06:00Z,26.8015,-97.4706,0.0,1.6,217.0,2.0,'11111222,11111222,11111222' 
TCOON,ioos:station:TCOON:003:1,2015-08-01T06:12:00Z,26.8015,-97.4706,0.0,1.2,238.0,1.5,'11111222,11111222,11111222' 
TCOON,ioos:station:TCOON:003:1,2015-08-01T06:18:00Z,26.8015,-97.4706,0.0,0.9,231.0,1.2,'11111222,11111222,11111222' 
TCOON,ioos:station:TCOON:003:1,2015-08-01T06:24:00Z,26.8015,-97.4706,0.0,1.7,186.0,2.0,'1111122,1111122,1111122' 
TCOON,ioos:station:TCOON:003:1,2015-08-01T06:30:00Z,26.8015,-97.4706,0.0,1.7,186.0,2.0,'11111222,11111222,11111222' 
TCOON,ioos:station:TCOON:003:1,2015-08-01T06:36:00Z,26.8015,-97.4706,0.0,2.1,182.0,2.7,'11111222,11111222,11111222' 
TCOON,ioos:station:TCOON:003:1,2015-08-01T06:42:00Z,26.8015,-97.4706,0.0,2.2,196.0,2.7,'11111222,11111222,11111222' 
TCOON,ioos:station:TCOON:003:1,2015-08-01T06:48:00Z,26.8015,-97.4706,0.0,2.5,211.0,2.9,'11111222,11111222,11111222' 
TCOON,ioos:station:TCOON:003:1,2015-08-01T06:54:00Z,26.8015,-97.4706,0.0,1.6,216.0,2.8,'11111222,11111222,11111222' 
TCOON,ioos:station:TCOON:003:1,2015-08-01T07:00:00Z,26.8015,-97.4706,0.0,1.6,210.0,2.0,'11111222,11111222,11111222' 
TCOON,ioos:station:TCOON:003:1,2015-08-01T07:06:00Z,26.8015,-97.4706,0.0,2.1,195.0,2.5,'11111222,11111222,11111222' 
TCOON,ioos:station:TCOON:003:1,2015-08-01T07:12:00Z,26.8015,-97.4706,0.0,2.6,193.0,3.0,'11111222,11111222,11111222' 
TCOON,ioos:station:TCOON:003:1,2015-08-01T07:18:00Z,26.8015,-97.4706,0.0,3.3,199.0,3.7,'11111222,11111222,11111222' 
TCOON,ioos:station:TCOON:003:1,2015-08-01T07:24:00Z,26.8015,-97.4706,0.0,3.6,193.0,3.9,'11111222,11111222,11111222' 
TCOON,ioos:station:TCOON:003:1,2015-08-01T07:30:00Z,26.8015,-97.4706,0.0,3.8,187.0,4.4,'11111222,11111222,11111222' 
TCOON,ioos:station:TCOON:003:1,2015-08-01T07:36:00Z,26.8015,-97.4706,0.0,3.8,195.0,4.2,'11111222,11111222,11111222' 
TCOON,ioos:station:TCOON:003:1,2015-08-01T07:42:00Z,26.8015,-97.4706,0.0,3.0,212.0,3.7,'1111122,1111122,1111122' 
TCOON,ioos:station:TCOON:003:1,2015-08-01T07:48:00Z,26.8015,-97.4706,0.0,3.0,212.0,3.7,'11111222,11111222,11111222' 
TCOON,ioos:station:TCOON:003:1,2015-08-01T07:54:00Z,26.8015,-97.4706,0.0,3.1,204.0,4.1,'11111222,11111222,11111222' 
TCOON,ioos:station:TCOON:003:1,2015-08-01T08:00:00Z,26.8015,-97.4706,0.0,3.7,197.0,4.5,'11111222,11111222,11111222' 
TCOON,ioos:station:TCOON:003:1,2015-08-01T08:06:00Z,26.8015,-97.4706,0.0,3.6,204.0,4.5,'11111222,11111222,11111222' 
TCOON,ioos:station:TCOON:003:1,2015-08-01T08:12:00Z,26.8015,-97.4706,0.0,3.4,203.0,4.0,'11111222,11111222,11111222' 
TCOON,ioos:station:TCOON:003:1,2015-08-01T08:18:00Z,26.8015,-97.4706,0.0,3.3,201.0,4.1,'1111122,1111122,1111122' 
TCOON,ioos:station:TCOON:003:1,2015-08-01T08:24:00Z,26.8015,-97.4706,0.0,3.3,201.0,4.1,'11111222,11111222,11111222' 
TCOON,ioos:station:TCOON:003:1,2015-08-01T08:30:00Z,26.8015,-97.4706,0.0,3.4,203.0,4.0,'11111222,11111222,11111222' 
TCOON,ioos:station:TCOON:003:1,2015-08-01T08:36:00Z,26.8015,-97.4706,0.0,3.6,197.0,4.2,'11111222,11111222,11111222' 
TCOON,ioos:station:TCOON:003:1,2015-08-01T08:42:00Z,26.8015,-97.4706,0.0,3.6,202.0,4.1,'11111222,11111222,11111222' 
TCOON,ioos:station:TCOON:003:1,2015-08-01T08:48:00Z,26.8015,-97.4706,0.0,3.3,205.0,4.3,'11111222,11111222,11111222' 
TCOON,ioos:station:TCOON:003:1,2015-08-01T08:54:00Z,26.8015,-97.4706,0.0,2.9,209.0,3.8,'11111222,11111222,11111222' 
TCOON,ioos:station:TCOON:003:1,2015-08-01T09:00:00Z,26.8015,-97.4706,0.0,3.3,210.0,3.8,'11111222,11111222,11111222' 
TCOON,ioos:station:TCOON:003:1,2015-08-01T09:06:00Z,26.8015,-97.4706,0.0,3.3,206.0,4.0,'11111222,11111222,11111222' 
TCOON,ioos:station:TCOON:003:1,2015-08-01T09:12:00Z,26.8015,-97.4706,0.0,2.8,211.0,3.7,'11111222,11111222,11111222' 
TCOON,ioos:station:TCOON:003:1,2015-08-01T09:18:00Z,26.8015,-97.4706,0.0,2.5,212.0,3.3,'11111222,11111222,11111222' 
TCOON,ioos:station:TCOON:003:1,2015-08-01T09:24:00Z,26.8015,-97.4706,0.0,2.3,225.0,2.9,'1111122,1111122,1111122' 
TCOON,ioos:station:TCOON:003:1,2015-08-01T09:30:00Z,26.8015,-97.4706,0.0,2.3,225.0,2.9,'11111222,11111222,11111222' 
TCOON,ioos:station:TCOON:003:1,2015-08-01T09:36:00Z,26.8015,-97.4706,0.0,2.4,216.0,3.0,'11111222,11111222,11111222' 
TCOON,ioos:station:TCOON:003:1,2015-08-01T09:42:00Z,26.8015,-97.4706,0.0,2.5,207.0,3.0,'11111222,11111222,11111222' 
TCOON,ioos:station:TCOON:003:1,2015-08-01T09:48:00Z,26.8015,-97.4706,0.0,3.0,208.0,3.4,'11111222,11111222,11111222' 
TCOON,ioos:station:TCOON:003:1,2015-08-01T09:54:00Z,26.8015,-97.4706,0.0,3.2,205.0,3.7,'11111222,11111222,11111222' 
TCOON,ioos:station:TCOON:003:1,2015-08-01T10:00:00Z,26.8015,-97.4706,0.0,3.0,207.0,3.5,'11111222,11111222,11111222' 
TCOON,ioos:station:TCOON:003:1,2015-08-01T10:06:00Z,26.8015,-97.4706,0.0,3.0,207.0,3.8,'11111222,11111222,11111222' 
TCOON,ioos:station:TCOON:003:1,2015-08-01T10:12:00Z,26.8015,-97.4706,0.0,2.4,211.0,3.3,'11111222,11111222,11111222' 
TCOON,ioos:station:TCOON:003:1,2015-08-01T10:18:00Z,26.8015,-97.4706,0.0,2.5,213.0,3.0,'11111222,11111222,11111222' 
TCOON,ioos:station:TCOON:003:1,2015-08-01T10:24:00Z,26.8015,-97.4706,0.0,2.9,206.0,3.3,'11111222,11111222,11111222' 
TCOON,ioos:station:TCOON:003:1,2015-08-01T10:30:00Z,26.8015,-97.4706,0.0,2.9,204.0,3.3,'1111122,1111122,1111122' 
TCOON,ioos:station:TCOON:003:1,2015-08-01T10:36:00Z,26.8015,-97.4706,0.0,2.9,204.0,3.3,'11111222,11111222,11111222' 
TCOON,ioos:station:TCOON:003:1,2015-08-01T10:42:00Z,26.8015,-97.4706,0.0,2.9,212.0,3.3,'11111222,11111222,11111222' 
TCOON,ioos:station:TCOON:003:1,2015-08-01T10:48:00Z,26.8015,-97.4706,0.0,2.2,219.0,3.0,'11111222,11111222,11111222' 
TCOON,ioos:station:TCOON:003:1,2015-08-01T10:54:00Z,26.8015,-97.4706,0.0,1.9,225.0,2.5,'11111222,11111222,11111222' 
TCOON,ioos:station:TCOON:003:1,2015-08-01T11:00:00Z,26.8015,-97.4706,0.0,1.5,220.0,2.4,'11111222,11111222,11111222' 
TCOON,ioos:station:TCOON:003:1,2015-08-01T11:06:00Z,26.8015,-97.4706,0.0,1.2,241.0,1.6,'11111222,11111222,11111222' 
TCOON,ioos:station:TCOON:003:1,2015-08-01T11:12:00Z,26.8015,-97.4706,0.0,1.2,233.0,1.4,'11111222,11111222,11111222' 
TCOON,ioos:station:TCOON:003:1,2015-08-01T11:18:00Z,26.8015,-97.4706,0.0,1.1,230.0,1.4,'11111222,11111222,11111222' 
TCOON,ioos:station:TCOON:003:1,2015-08-01T11:24:00Z,26.8015,-97.4706,0.0,1.1,275.0,1.4,'1111122,1111122,1111122' 
TCOON,ioos:station:TCOON:003:1,2015-08-01T11:30:00Z,26.8015,-97.4706,0.0,1.1,275.0,1.4,'11111222,11111222,11111222' 
TCOON,ioos:station:TCOON:003:1,2015-08-01T11:36:00Z,26.8015,-97.4706,0.0,0.9,278.0,1.2,'11111222,11111222,11111222' 
TCOON,ioos:station:TCOON:003:1,2015-08-01T11:42:00Z,26.8015,-97.4706,0.0,1.3,290.0,1.4,'11111222,11111222,11111222' 
TCOON,ioos:station:TCOON:003:1,2015-08-01T11:48:00Z,26.8015,-97.4706,0.0,1.6,303.0,1.9,'11111222,11111222,11111222' 
TCOON,ioos:station:TCOON:003:1,2015-08-01T11:54:00Z,26.8015,-97.4706,0.0,1.6,308.0,2.1,'11111222,11111222,11111222' 
TCOON,ioos:station:TCOON:003:1,2015-08-01T12:00:00Z,26.8015,-97.4706,0.0,2.2,317.0,2.6,'11111222,11111222,11111222' 
TCOON,ioos:station:TCOON:003:1,2015-08-01T12:06:00Z,26.8015,-97.4706,0.0,3.4,329.0,3.7,'11111222,11111222,11111222' 
TCOON,ioos:station:TCOON:003:1,2015-08-01T12:12:00Z,26.8015,-97.4706,0.0,2.7,329.0,3.3,'11111222,11111222,11111222' 
TCOON,ioos:station:TCOON:003:1,2015-08-01T12:18:00Z,26.8015,-97.4706,0.0,3.1,341.0,3.6,'11111222,11111222,11111222' 
TCOON,ioos:station:TCOON:003:1,2015-08-01T12:24:00Z,26.8015,-97.4706,0.0,2.8,343.0,3.8,'11111222,11111222,11111222' 
TCOON,ioos:station:TCOON:003:1,2015-08-01T12:30:00Z,26.8015,-97.4706,0.0,2.8,345.0,3.2,'11111222,11111222,11111222' 
TCOON,ioos:station:TCOON:003:1,2015-08-01T12:36:00Z,26.8015,-97.4706,0.0,3.6,341.0,3.7,'11111222,11111222,11111222' 
TCOON,ioos:station:TCOON:003:1,2015-08-01T12:42:00Z,26.8015,-97.4706,0.0,3.3,348.0,3.7,'11111222,11111222,11111222' 
TCOON,ioos:station:TCOON:003:1,2015-08-01T12:48:00Z,26.8015,-97.4706,0.0,3.8,343.0,4.3,'1111122,1111122,1111122' 
TCOON,ioos:station:TCOON:003:1,2015-08-01T12:54:00Z,26.8015,-97.4706,0.0,3.8,343.0,4.3,'11111222,11111222,11111222' 
TCOON,ioos:station:TCOON:003:1,2015-08-01T13:00:00Z,26.8015,-97.4706,0.0,3.4,353.0,4.3,'11111222,11111222,11111222' 
TCOON,ioos:station:TCOON:003:1,2015-08-01T13:06:00Z,26.8015,-97.4706,0.0,2.9,4.0,3.5,'11111222,11111222,11111222' 
TCOON,ioos:station:TCOON:003:1,2015-08-01T13:12:00Z,26.8015,-97.4706,0.0,3.0,349.0,3.3,'11111222,11111222,11111222' 
TCOON,ioos:station:TCOON:003:1,2015-08-01T13:18:00Z,26.8015,-97.4706,0.0,3.2,350.0,3.6,'1111122,1111122,1111122' 
TCOON,ioos:station:TCOON:003:1,2015-08-01T13:24:00Z,26.8015,-97.4706,0.0,3.2,350.0,3.6,'11111222,11111222,11111222' 
TCOON,ioos:station:TCOON:003:1,2015-08-01T13:30:00Z,26.8015,-97.4706,0.0,3.2,350.0,3.6,'11111222,11111222,11111222' 
TCOON,ioos:station:TCOON:003:1,2015-08-01T13:36:00Z,26.8015,-97.4706,0.0,2.9,355.0,3.5,'11111222,11111222,11111222' 
TCOON,ioos:station:TCOON:003:1,2015-08-01T13:42:00Z,26.8015,-97.4706,0.0,3.2,354.0,3.6,'11111222,11111222,11111222' 
TCOON,ioos:station:TCOON:003:1,2015-08-01T13:48:00Z,26.8015,-97.4706,0.0,2.8,356.0,3.4,'11111222,11111222,11111222' 
TCOON,ioos:station:TCOON:003:1,2015-08-01T13:54:00Z,26.8015,-97.4706,0.0,3.0,348.0,3.4,'11111222,11111222,11111222' 
TCOON,ioos:station:TCOON:003:1,2015-08-01T14:00:00Z,26.8015,-97.4706,0.0,3.0,355.0,3.8,'11111222,11111222,11111222' 
TCOON,ioos:station:TCOON:003:1,2015-08-01T14:06:00Z,26.8015,-97.4706,0.0,3.1,344.0,3.5,'11111222,11111222,11111222' 
TCOON,ioos:station:TCOON:003:1,2015-08-01T14:12:00Z,26.8015,-97.4706,0.0,3.2,350.0,3.8,'11111222,11111222,11111222' 
TCOON,ioos:station:TCOON:003:1,2015-08-01T14:18:00Z,26.8015,-97.4706,0.0,2.6,351.0,3.5,'1111122,1111122,1111122' 
TCOON,ioos:station:TCOON:003:1,2015-08-01T14:24:00Z,26.8015,-97.4706,0.0,2.6,351.0,3.5,'11111222,11111222,11111222' 
TCOON,ioos:station:TCOON:003:1,2015-08-01T14:30:00Z,26.8015,-97.4706,0.0,3.1,347.0,3.6,'11111222,11111222,11111222' 
TCOON,ioos:station:TCOON:003:1,2015-08-01T14:36:00Z,26.8015,-97.4706,0.0,2.9,331.0,3.5,'11111222,11111222,11111222' 
TCOON,ioos:station:TCOON:003:1,2015-08-01T14:42:00Z,26.8015,-97.4706,0.0,2.9,332.0,3.9,'11111222,11111222,11111222' 
TCOON,ioos:station:TCOON:003:1,2015-08-01T14:48:00Z,26.8015,-97.4706,0.0,3.2,327.0,3.9,'11111222,11111222,11111222' 
TCOON,ioos:station:TCOON:003:1,2015-08-01T14:54:00Z,26.8015,-97.4706,0.0,2.8,335.0,3.3,'11111222,11111222,11111222' 
TCOON,ioos:station:TCOON:003:1,2015-08-01T15:00:00Z,26.8015,-97.4706,0.0,3.0,341.0,3.3,'11111222,11111222,11111222' 
TCOON,ioos:station:TCOON:003:1,2015-08-01T15:06:00Z,26.8015,-97.4706,0.0,3.7,8.0,4.1,'11111222,11111222,11111222' 
TCOON,ioos:station:TCOON:003:1,2015-08-01T15:12:00Z,26.8015,-97.4706,0.0,2.9,353.0,3.5,'11111222,11111222,11111222' 
TCOON,ioos:station:TCOON:003:1,2015-08-01T15:18:00Z,26.8015,-97.4706,0.0,2.7,340.0,3.7,'1111122,1111122,1111122' 
TCOON,ioos:station:TCOON:003:1,2015-08-01T15:24:00Z,26.8015,-97.4706,0.0,2.7,340.0,3.7,'11111222,11111222,11111222' 
TCOON,ioos:station:TCOON:003:1,2015-08-01T15:30:00Z,26.8015,-97.4706,0.0,3.6,12.0,4.0,'11111222,11111222,11111222' 
TCOON,ioos:station:TCOON:003:1,2015-08-01T15:36:00Z,26.8015,-97.4706,0.0,3.2,22.0,4.3,'11111222,11111222,11111222' 
TCOON,ioos:station:TCOON:003:1,2015-08-01T15:42:00Z,26.8015,-97.4706,0.0,1.8,4.0,3.5,'11111222,11111222,11111222' 
TCOON,ioos:station:TCOON:003:1,2015-08-01T15:48:00Z,26.8015,-97.4706,0.0,2.1,343.0,2.5,'11111222,11111222,11111222' 
TCOON,ioos:station:TCOON:003:1,2015-08-01T15:54:00Z,26.8015,-97.4706,0.0,1.6,331.0,3.0,'11111222,11111222,11111222' 
TCOON,ioos:station:TCOON:003:1,2015-08-01T16:00:00Z,26.8015,-97.4706,0.0,2.3,0.0,3.1,'11111222,11111222,11111222' 
TCOON,ioos:station:TCOON:003:1,2015-08-01T16:06:00Z,26.8015,-97.4706,0.0,0.9,323.0,2.5,'11111222,11111222,11111222' 
TCOON,ioos:station:TCOON:003:1,2015-08-01T16:12:00Z,26.8015,-97.4706,0.0,1.0,322.0,1.5,'11111222,11111222,11111222' 
TCOON,ioos:station:TCOON:003:1,2015-08-01T16:18:00Z,26.8015,-97.4706,0.0,1.7,330.0,2.0,'11111222,11111222,11111222' 
TCOON,ioos:station:TCOON:003:1,2015-08-01T16:24:00Z,26.8015,-97.4706,0.0,1.1,299.0,2.2,'11111222,11111222,11111222' 
TCOON,ioos:station:TCOON:003:1,2015-08-01T16:30:00Z,26.8015,-97.4706,0.0,1.3,286.0,1.7,'11111222,11111222,11111222' 
TCOON,ioos:station:TCOON:003:1,2015-08-01T16:36:00Z,26.8015,-97.4706,0.0,1.2,290.0,2.1,'11111222,11111222,11111222' 
TCOON,ioos:station:TCOON:003:1,2015-08-01T16:42:00Z,26.8015,-97.4706,0.0,1.3,311.0,2.1,'11111222,11111222,11111222' 
TCOON,ioos:station:TCOON:003:1,2015-08-01T16:48:00Z,26.8015,-97.4706,0.0,1.4,343.0,2.6,'11111222,11111222,11111222' 
TCOON,ioos:station:TCOON:003:1,2015-08-01T16:54:00Z,26.8015,-97.4706,0.0,2.1,324.0,3.1,'11111222,11111222,11111222' 
TCOON,ioos:station:TCOON:003:1,2015-08-01T17:00:00Z,26.8015,-97.4706,0.0,1.5,294.0,1.9,'11111222,11111222,11111222' 
TCOON,ioos:station:TCOON:003:1,2015-08-01T17:06:00Z,26.8015,-97.4706,0.0,1.0,296.0,1.5,'11111222,11111222,11111222' 
TCOON,ioos:station:TCOON:003:1,2015-08-01T17:12:00Z,26.8015,-97.4706,0.0,2.0,350.0,2.8,'11111222,11111222,11111222' 
TCOON,ioos:station:TCOON:003:1,2015-08-01T17:18:00Z,26.8015,-97.4706,0.0,3.3,3.0,4.2,'1111122,1111122,1111122' 
TCOON,ioos:station:TCOON:003:1,2015-08-01T17:24:00Z,26.8015,-97.4706,0.0,3.3,3.0,4.2,'11111222,11111222,11111222' 
TCOON,ioos:station:TCOON:003:1,2015-08-01T17:30:00Z,26.8015,-97.4706,0.0,1.8,350.0,5.4,'11111222,11111222,11111222' 
TCOON,ioos:station:TCOON:003:1,2015-08-01T17:36:00Z,26.8015,-97.4706,0.0,2.4,38.0,3.8,'11111222,11111222,11111222' 
TCOON,ioos:station:TCOON:003:1,2015-08-01T17:42:00Z,26.8015,-97.4706,0.0,3.4,33.0,4.7,'11111222,11111222,11111222' 
TCOON,ioos:station:TCOON:003:1,2015-08-01T17:48:00Z,26.8015,-97.4706,0.0,3.5,34.0,5.0,'11111222,11111222,11111222' 
TCOON,ioos:station:TCOON:003:1,2015-08-01T17:54:00Z,26.8015,-97.4706,0.0,3.6,42.0,5.6,'11111222,11111222,11111222' 
TCOON,ioos:station:TCOON:003:1,2015-08-01T18:00:00Z,26.8015,-97.4706,0.0,3.8,27.0,4.9,'11111222,11111222,11111222' 
TCOON,ioos:station:TCOON:003:1,2015-08-01T18:06:00Z,26.8015,-97.4706,0.0,4.2,36.0,5.8,'11111222,11111222,11111222' 
TCOON,ioos:station:TCOON:003:1,2015-08-01T18:12:00Z,26.8015,-97.4706,0.0,6.1,60.0,7.7,'1111122,1111122,1111122' 
TCOON,ioos:station:TCOON:003:1,2015-08-01T18:18:00Z,26.8015,-97.4706,0.0,5.6,60.0,7.0,'11111222,11111222,11111222' 
TCOON,ioos:station:TCOON:003:1,2015-08-01T18:24:00Z,26.8015,-97.4706,0.0,6.1,62.0,7.7,'11111222,11111222,11111222' 
TCOON,ioos:station:TCOON:003:1,2015-08-01T18:30:00Z,26.8015,-97.4706,0.0,5.9,49.0,7.4,'11111222,11111222,11111222' 
TCOON,ioos:station:TCOON:003:1,2015-08-01T18:36:00Z,26.8015,-97.4706,0.0,5.4,52.0,7.6,'11111222,11111222,11111222' 
TCOON,ioos:station:TCOON:003:1,2015-08-01T18:42:00Z,26.8015,-97.4706,0.0,5.4,46.0,7.0,'11111222,11111222,11111222' 
TCOON,ioos:station:TCOON:003:1,2015-08-01T18:48:00Z,26.8015,-97.4706,0.0,5.6,71.0,6.9,'11111222,11111222,11111222' 
TCOON,ioos:station:TCOON:003:1,2015-08-01T18:54:00Z,26.8015,-97.4706,0.0,5.1,49.0,7.3,'11111222,11111222,11111222' 
TCOON,ioos:station:TCOON:003:1,2015-08-01T19:00:00Z,26.8015,-97.4706,0.0,5.4,53.0,7.1,'11111222,11111222,11111222' 
TCOON,ioos:station:TCOON:003:1,2015-08-01T19:06:00Z,26.8015,-97.4706,0.0,5.2,63.0,7.6,'11111222,11111222,11111222' 
TCOON,ioos:station:TCOON:003:1,2015-08-01T19:12:00Z,26.8015,-97.4706,0.0,5.5,73.0,7.1,'11111222,11111222,11111222' 
TCOON,ioos:station:TCOON:003:1,2015-08-01T19:18:00Z,26.8015,-97.4706,0.0,5.5,68.0,8.2,'1111122,1111122,1111122' 
TCOON,ioos:station:TCOON:003:1,2015-08-01T19:24:00Z,26.8015,-97.4706,0.0,5.5,68.0,8.2,'11111222,11111222,11111222' 
TCOON,ioos:station:TCOON:003:1,2015-08-01T19:30:00Z,26.8015,-97.4706,0.0,5.6,64.0,7.1,'11111222,11111222,11111222' 
TCOON,ioos:station:TCOON:003:1,2015-08-01T19:36:00Z,26.8015,-97.4706,0.0,5.7,70.0,7.5,'11111222,11111222,11111222' 
TCOON,ioos:station:TCOON:003:1,2015-08-01T19:42:00Z,26.8015,-97.4706,0.0,6.7,74.0,7.6,'11111222,11111222,11111222' 
TCOON,ioos:station:TCOON:003:1,2015-08-01T19:48:00Z,26.8015,-97.4706,0.0,6.2,75.0,8.1,'11111222,11111222,11111222' 
TCOON,ioos:station:TCOON:003:1,2015-08-01T19:54:00Z,26.8015,-97.4706,0.0,5.4,57.0,8.0,'11111222,11111222,11111222' 
TCOON,ioos:station:TCOON:003:1,2015-08-01T20:00:00Z,26.8015,-97.4706,0.0,4.7,68.0,6.6,'11111222,11111222,11111222' 
TCOON,ioos:station:TCOON:003:1,2015-08-01T20:06:00Z,26.8015,-97.4706,0.0,5.4,67.0,7.2,'11111222,11111222,11111222' 
TCOON,ioos:station:TCOON:003:1,2015-08-01T20:12:00Z,26.8015,-97.4706,0.0,5.2,60.0,6.4,'11111222,11111222,11111222' 
TCOON,ioos:station:TCOON:003:1,2015-08-01T20:18:00Z,26.8015,-97.4706,0.0,5.8,74.0,8.6,'1111122,1111122,1111122' 
TCOON,ioos:station:TCOON:003:1,2015-08-01T20:24:00Z,26.8015,-97.4706,0.0,5.8,74.0,8.6,'11111222,11111222,11111222' 